EW2441 Weather Reports


time (UTC)temp
C
wind
direction
speed
KPH
gust
KPH
rain 1hr
cm
rain 24hr
cm
rain mn
cm
humidity
%
barometer
mb
20260510130005 8 348 3.2 12.9 0.00 1.37 0.03 70 1015.4
20260510124505 8 348 4.8 17.7 0.00 1.37 0.03 72 1015.2
20260510123006 8 351 3.2 12.9 0.00 1.37 0.03 78 1015.0
20260510121505 8 334 3.2 12.9 0.00 1.37 0.03 83 1014.8
20260510120006 8 348 3.2 11.3 0.00 1.37 0.03 84 1014.5
20260510114504 8 347 1.6 17.7 0.00 1.37 0.03 85 1013.9
20260510113005 8 348 3.2 14.5 0.00 1.37 0.03 84 1013.6
20260510111505 8 350 3.2 9.7 0.00 1.37 0.03 86 1013.3
20260510110006 8 339 1.6 8.0 0.00 1.37 0.03 88 1013.1
20260510104505 8 348 1.6 8.0 0.00 1.37 0.03 89 1012.6
20260510103005 8 345 1.6 6.4 0.00 1.37 0.03 88 1012.5
20260510101505 8 350 3.2 6.4 0.00 1.37 0.03 88 1012.3
20260510100006 8 350 1.6 8.0 0.00 1.37 0.03 87 1012.1
20260510094504 8 331 1.6 4.8 0.00 1.37 0.03 89 1012.0
20260510093005 8 338 1.6 4.8 0.00 1.37 0.03 90 1011.7
20260510091504 8 343 0.0 1.6 0.00 1.37 0.03 92 1011.2
20260510084505 9 343 0.0 1.6 0.00 1.37 0.03 90 1010.9
20260510083005 10 0 0.0 0.0 0.00 1.37 0.03 89 1010.9
20260510081504 10 343 0.0 3.2 0.00 1.37 0.03 87 1010.8
20260510080005 10 330 1.6 6.4 0.00 1.37 0.03 85 1010.4
20260510074505 10 342 1.6 8.0 0.00 1.37 0.03 87 1010.1
20260510073005 10 347 1.6 6.4 0.00 1.40 0.03 88 1009.8
20260510070005 11 349 3.2 16.1 0.00 1.50 0.03 88 1009.4
20260510064505 11 346 6.4 19.3 0.00 1.65 0.03 88 1009.3
20260510063006 12 337 1.6 4.8 0.00 1.73 0.03 92 1009.3
20260510061505 12 347 1.6 4.8 0.00 1.78 0.03 92 1009.1
20260510060005 12 336 0.0 3.2 0.00 1.91 0.03 93 1009.1
20260510054505 12 305 1.6 6.4 0.00 2.06 0.03 93 1009.2
20260510053005 12 321 1.6 6.4 0.00 2.11 0.03 93 1009.0
20260510051504 12 220 0.0 4.8 0.00 2.21 0.03 92 1008.1
20260510050005 12 197 1.6 6.4 0.03 2.26 0.03 91 1007.7
20260510044504 12 200 1.6 8.0 0.15 2.26 0.03 91 1007.5
20260510043005 12 199 3.2 12.9 0.18 2.26 0.03 90 1007.5
20260510034504 12 199 6.4 20.9 0.05 2.16 2.13 91 1007.5
20260510033005 12 204 3.2 11.3 0.10 2.21 2.11 92 1007.9
20260510030006 12 207 1.6 3.2 0.30 2.29 2.11 91 1007.3
20260510024504 12 264 8.0 20.9 0.28 2.29 2.08 91 1008.2
20260510023005 12 276 1.6 4.8 0.15 2.16 1.96 93 1008.1
20260510021504 12 270 0.0 3.2 0.00 2.01 1.80 92 1007.0
20260510020006 12 224 0.0 1.6 0.00 2.01 1.80 92 1007.0
20260510014505 12 223 0.0 1.6 0.00 2.01 1.80 91 1006.9
20260510010005 12 230 1.6 9.7 0.00 2.08 1.80 90 1006.6
20260510004504 12 228 1.6 6.4 0.03 2.11 1.80 91 1006.6
20260510001505 12 236 3.2 11.3 0.64 2.21 1.80 89 1006.4
20260510000005 12 249 3.2 16.1 0.86 2.26 1.80 89 1006.7
20260509234504 13 299 6.4 19.3 0.84 2.29 1.78 89 1006.5
20260509231504 16 330 9.7 30.6 0.10 1.75 1.04 72 1006.6
20260509230005 20 214 6.4 20.9 0.00 1.68 0.94 52 1004.2
20260509224505 20 192 8.0 24.1 0.00 1.80 0.94 51 1004.0
20260509223005 20 197 4.8 17.7 0.00 1.91 0.94 51 1004.1
20260509221504 21 220 8.0 25.7 0.00 2.01 0.94 49 1004.1
20260509220005 21 212 8.0 27.4 0.00 2.03 0.94 47 1004.1
20260509214504 21 184 8.0 27.4 0.00 2.03 0.94 47 1003.9
20260509213005 21 196 8.0 20.9 0.00 2.08 0.94 49 1003.9
20260509211504 21 201 6.4 22.5 0.00 2.11 0.94 48 1004.2
20260509210004 21 169 9.7 27.4 0.00 2.13 0.94 51 1004.4
20260509204504 21 217 8.0 24.1 0.00 2.13 0.94 51 1004.6
20260509203005 21 199 8.0 24.1 0.00 2.13 0.94 52 1004.6
20260509201504 21 217 9.7 22.5 0.00 2.13 0.94 51 1005.0
20260509200005 21 213 8.0 25.7 0.00 2.13 0.94 52 1005.0
20260509194504 21 210 8.0 24.1 0.00 2.13 0.94 52 1005.1
20260509193005 20 176 8.0 27.4 0.00 2.13 0.94 54 1005.5
20260509191504 20 179 8.0 19.3 0.00 2.13 0.94 56 1005.9
20260509190006 20 222 6.4 17.7 0.00 2.13 0.94 56 1006.0
20260509184504 20 210 6.4 19.3 0.00 2.13 0.94 56 1006.0
20260509183005 19 171 9.7 30.6 0.00 2.13 0.94 59 1005.9
20260509181505 20 207 6.4 22.5 0.00 2.13 0.94 57 1005.9
20260509180005 19 177 8.0 29.0 0.00 2.13 0.94 57 1006.1
20260509174504 19 167 8.0 24.1 0.00 2.13 0.94 58 1006.1
20260509173004 19 209 6.4 17.7 0.03 2.13 0.94 60 1006.2
20260509163005 18 187 6.4 17.7 0.00 2.11 0.91 63 1006.6
20260509161504 17 228 4.8 12.9 0.00 2.11 0.91 68 1006.8
20260509154503 16 218 4.8 14.5 0.00 2.11 0.91 77 1006.8
20260509151504 14 235 3.2 11.3 0.00 2.11 0.91 84 1006.6
20260509150005 14 236 4.8 12.9 0.00 2.11 0.91 86 1006.7
20260509144504 13 207 3.2 11.3 0.00 2.11 0.91 88 1006.8
20260509143004 13 203 1.6 9.7 0.00 2.11 0.91 90 1006.8
20260509141505 12 196 3.2 12.9 0.00 2.11 0.91 92 1006.8
20260509140006 12 206 3.2 8.0 0.00 2.11 0.91 93 1006.8
20260509133005 12 186 3.2 8.0 0.00 2.11 0.91 93 1006.8
20260509131504 12 186 3.2 9.7 0.00 2.11 0.91 94 1006.8